Location: Home
(42.5358°N, 72.7383°W)
Time: 03:06:55
(UTC-04:00)

IRIDIUM 152 - Pass Details

Date: 09 July 2022
Orbit: 776 x 779 km, 86.4° (Epoch: 16 August)

Event Time Altitude Azimuth Distance (km) Brightness Sun altitude
Exits shadow 04:09:54 11° 197° (SSW) 2,239 ? -11.3°
Maximum altitude 04:14:48 58° 276° (W) 909 ? -10.6°
Drops below altitude 10° 04:19:58 10° 355° (N) 2,341 ? -9.9°
Sets 04:22:22 0° 359° (N) 3,273 ? -9.6°
